STARLINK-1942 (46794 NORAD) Tracking and Keplerian Element Data
This shows tracking and keplerian element data for the satellite.
Feedback or suggestion? Click here.
Element | Value |
Catalog | 46794 |
Name | STARLINK-1942 |
Epoch Orbit | 1397 |
Epoch Day | 21.16668981 |
Epoch Year | 2021 |
RAAN | 92.1773 |
Inclination | 53.0566 |
Eccentricity | 0.0001587 |
Argument of Perigee | 55.9236 |
Mean Anonmoly | 35.4667 |
Mean Motion | 15.0639532 |
Decay Rate | -7.95E-06 |
L1 | 1 46794U 20074BH 21021.16668981 -.00000795 00000-0 -34473-4 0 9992 |
L2 | 2 46794 53.0566 92.1773 0001587 55.9236 35.4667 15.06395320 13972 |
Live tracking and technical data element details for STARLINK-1942 (NORAD 46794). STARLINK-1942 can be tracked NOW for your location showing map with azimuth and elevation plus other details from your city location.
Track the satellite on the map from your city or location and see movement details for azimuth, elevation, latitude, longitude, range, height, and movement on the map or in text.
IsCatalogInMostPopularTable: catalog: 46794, numindb: 31
Update: records affected: 1
GetName: 46794 STARLINK-1942
Hit Count: updated at: Fri, 22 Jan 2021 19:02:56 GMT